Location: ?????
(55.6500°N, 37.2500°E)
Time: 11:04:23
(UTC+00:00)

ARIANE 6 FM1 Upper Stage - Pass Details

Date: 19 May 2025
Orbit: 531 x 610 km, 62.0° (Epoch: 13 June)

Event Time Altitude Azimuth Distance (km) Brightness Sun altitude
Rises 20:21:35 0° 255° (WSW) 2,675 6.2 -13.1°
Reaches altitude 10° 20:23:49 10° 261° (W) 1,790 5.3 -13.2°
Maximum altitude 20:27:44 49° 338° (NNW) 705 3.6 -13.3°
Drops below altitude 10° 20:31:43 10° 54° (NE) 1,824 5.6 -13.5°
Sets 20:34:00 0° 60° (ENE) 2,731 6.4 -13.5°
